DW8790 Maspalomas ES current weather conditions

sailwx.info

Wind from 150

Air temperature 20.0° C
Dewpoint 15.2° C

Last reported at 2015-Mar-06 19:50 UTC.
Time now 2015-Mar-06 20:10 UTC

Location: N 27°46' W 015°34'.
View on Google Maps.

See reports from other nearby stations

  
Tides and Currents Weather Stations Pressure Air Temp Water Temp Dewpoint Dewpoint Depression Visibility Wind Speed Wind Dir Waves Ship Positions
date/time (UTC)wind fromknots sea level pressurealtimeterstation pressurevisibilityair tempwater tempwave heightnotes
2015-Mar-06 19:50 150 20.0
2015-Mar-06 19:40 140 20.0
2015-Mar-06 19:30 140 20.0
2015-Mar-06 19:20 140 20.6
2015-Mar-06 19:10 140 20.6
2015-Mar-06 19:00 267 0 gusting 2 20.6
2015-Mar-06 18:50 267 21.1
2015-Mar-06 18:40 267 2 gusting 4 21.1
2015-Mar-06 18:30 280 1 gusting 4 21.1
2015-Mar-06 18:20 249 1 gusting 5 21.1
2015-Mar-06 18:10 268 4 gusting 5 21.1
2015-Mar-06 18:00 235 4 gusting 6 21.7
2015-Mar-06 17:50 243 2 gusting 5 22.2
2015-Mar-06 17:40 243 4 gusting 6 22.8
2015-Mar-06 17:30 228 2 gusting 4 23.3
2015-Mar-06 17:20 235 2 gusting 6 23.3
2015-Mar-06 17:10 244 2 gusting 6 23.3
2015-Mar-06 17:00 233 1 gusting 5 23.3
2015-Mar-06 16:50 228 3 gusting 6 23.3
2015-Mar-06 16:40 204 2 gusting 7 23.3
2015-Mar-06 16:30 250 4 gusting 7 23.3
2015-Mar-06 16:20 247 6 gusting 7 23.3
2015-Mar-06 16:10 214 4 gusting 7 23.3
2015-Mar-06 16:00 223 5 gusting 6 23.9
2015-Mar-06 15:50 224 4 gusting 6 23.9
2015-Mar-06 15:40 258 4 gusting 7 23.3
2015-Mar-06 15:30 244 4 gusting 8 23.9
2015-Mar-06 15:20 229 6 gusting 7 24.4
2015-Mar-06 15:10 240 4 gusting 8 23.9
2015-Mar-06 15:00 231 5 gusting 12 23.3
2015-Mar-06 14:50 264 8 gusting 13 23.3
2015-Mar-06 14:40 275 7 gusting 11 24.4
2015-Mar-06 14:30 266 9 gusting 12 25.0
2015-Mar-06 14:20 239 6 gusting 10 27.2
2015-Mar-06 14:10 124 6 gusting 13 27.2
2015-Mar-06 14:00 130 8 gusting 11 25.6
2015-Mar-06 13:50 157 6 gusting 11 24.4
2015-Mar-06 13:40 173 6 gusting 13 24.4
2015-Mar-06 13:30 170 5 gusting 10 25.6
2015-Mar-06 13:20 189 5 gusting 14 26.1
2015-Mar-06 13:10 289 5 gusting 12 26.7
2015-Mar-06 13:00 278 4 gusting 8 27.8
2015-Mar-06 12:50 132 4 gusting 12 26.7
2015-Mar-06 12:40 223 4 gusting 8 25.6
2015-Mar-06 12:30 199 1 gusting 6 25.6
2015-Mar-06 12:20 175 2 gusting 6 25.0
2015-Mar-06 12:10 181 4 gusting 6 24.4
2015-Mar-06 12:00 186 4 gusting 6 24.4
2015-Mar-06 11:50 159 2 gusting 6 24.4
2015-Mar-06 11:40 135 4 gusting 6 23.9
2015-Mar-06 11:30 173 3 gusting 6 24.4
2015-Mar-06 11:20 186 3 gusting 6 23.9
2015-Mar-06 11:10 139 1 gusting 6 23.9
2015-Mar-06 11:00 141 2 gusting 5 23.3
2015-Mar-06 10:50 210 2 gusting 2 23.3
2015-Mar-06 10:40 186 22.2
2015-Mar-06 10:30 165 2 gusting 4 21.7
2015-Mar-06 10:20 230 0 gusting 2 21.7
2015-Mar-06 10:10 198 0 gusting 2 21.1
2015-Mar-06 10:00 216 0 gusting 2 21.1
2015-Mar-06 09:50 216 0 gusting 2 21.1
2015-Mar-06 09:40 185 1 gusting 4 20.6
2015-Mar-06 09:30 290 19.4
2015-Mar-06 09:20 290 18.9
2015-Mar-06 09:10 290 18.3
2015-Mar-06 09:00 290 18.3
2015-Mar-06 08:50 290 17.8
2015-Mar-06 08:40 290 17.2
2015-Mar-06 08:30 290 17.2
2015-Mar-06 08:20 290 16.7
2015-Mar-06 08:10 290 16.7
2015-Mar-06 08:00 290 2 gusting 4 16.1
2015-Mar-06 07:50 275 1 gusting 2 15.6
2015-Mar-06 07:40 065 0 gusting 2 15.0
2015-Mar-06 07:30 065 15.0
2015-Mar-06 07:20 065 14.4
2015-Mar-06 07:10 320 0 gusting 2 14.4
2015-Mar-06 07:00 296 1 gusting 2 13.9
2015-Mar-06 06:50 296 0 gusting 2 14.4
2015-Mar-06 06:40 296 2 gusting 2 14.4
2015-Mar-06 06:30 298 2 gusting 4 15.0
2015-Mar-06 06:20 281 2 gusting 6 15.0
2015-Mar-06 06:10 296 2 gusting 4 15.0
2015-Mar-06 06:00 281 1 gusting 2 15.0
2015-Mar-06 05:50 281 13.9
2015-Mar-06 05:40 281 0 gusting 2 13.3
2015-Mar-06 05:30 281 1 gusting 2 13.3
2015-Mar-06 05:20 293 2 gusting 4 13.9
2015-Mar-06 05:10 298 2 gusting 2 14.4
2015-Mar-06 05:00 323 15.0
2015-Mar-06 04:50 323 1 gusting 2 15.0
2015-Mar-06 04:40 323 15.6
2015-Mar-06 04:30 323 15.6
2015-Mar-06 04:20 323 15.6
2015-Mar-06 04:10 323 15.0
2015-Mar-06 04:00 323 15.0
2015-Mar-06 03:50 323 15.0
2015-Mar-06 03:40 323 15.6
2015-Mar-06 03:30 323 15.6
2015-Mar-06 03:20 323 15.6
2015-Mar-06 03:10 323 15.6
2015-Mar-06 03:00 323 16.1
2015-Mar-06 02:50 323 16.1
2015-Mar-06 02:40 308 16.1
2015-Mar-06 02:30 308 16.1
2015-Mar-06 02:20 308 16.1
2015-Mar-06 02:10 308 16.1
2015-Mar-06 02:00 308 16.1
2015-Mar-06 01:50 308 0 gusting 2 16.1
2015-Mar-06 01:40 308 1 gusting 2 16.7
2015-Mar-06 01:30 093 16.7
2015-Mar-06 01:20 093 17.2
2015-Mar-06 01:10 093 17.2
2015-Mar-06 01:00 093 17.8
2015-Mar-06 00:50 129 1 gusting 6 17.8
2015-Mar-06 00:40 116 5 gusting 6 17.8
2015-Mar-06 00:30 129 2 gusting 6 17.8
2015-Mar-06 00:20 119 4 gusting 6 18.3
2015-Mar-06 00:10 105 5 gusting 6 19.4
2015-Mar-06 00:00 096 20.0
2015-Mar-05 23:50 351 4 gusting 6 20.0
2015-Mar-05 23:40 324 2 gusting 4 18.9
2015-Mar-05 23:30 303 4 gusting 4 18.9
2015-Mar-05 23:20 293 2 gusting 2 18.3
2015-Mar-05 23:10 313 1 gusting 2 17.8
2015-Mar-05 23:00 098 1 gusting 2 17.2
2015-Mar-05 22:50 098 17.8
2015-Mar-05 22:40 098 17.2
2015-Mar-05 22:30 098 17.2
2015-Mar-05 22:20 098 17.8
2015-Mar-05 22:10 098 2 gusting 4 17.8
2015-Mar-05 22:00 098 17.8
2015-Mar-05 21:50 098 17.8
2015-Mar-05 21:40 098 18.3
2015-Mar-05 21:30 098 1 gusting 2 18.3
2015-Mar-05 21:20 253 18.3
2015-Mar-05 21:10 253 18.3
2015-Mar-05 21:00 253 1 gusting 2 18.3
2015-Mar-05 20:50 253 1 gusting 2 18.9
2015-Mar-05 20:40 253 0 gusting 2 18.9
2015-Mar-05 20:30 253 18.9
2015-Mar-05 20:20 253 18.9
2015-Mar-05 20:10 253 19.4
2015-Mar-05 20:00 253 0 gusting 1 19.4
2015-Mar-05 19:50 253 19.4
2015-Mar-05 19:40 253 0 gusting 2 19.4
2015-Mar-05 19:30 253 2 gusting 4 20.0
2015-Mar-05 19:20 253 2 gusting 4 20.0
2015-Mar-05 19:10 277 2 gusting 2 20.6
2015-Mar-05 19:00 238 1 gusting 2 21.1
2015-Mar-05 18:50 217 0 gusting 2 21.7
2015-Mar-05 18:40 224 1 gusting 2 22.2
2015-Mar-05 18:30 204 0 gusting 4 22.8
2015-Mar-05 18:20 205 2 gusting 5 23.3
2015-Mar-05 18:10 185 2 gusting 6 23.3
2015-Mar-05 18:00 231 4 gusting 6 23.3
2015-Mar-05 17:50 238 5 gusting 7 23.9
2015-Mar-05 17:40 257 4 gusting 6 23.9
2015-Mar-05 17:30 237 4 gusting 10 23.9
2015-Mar-05 17:20 261 5 gusting 10 24.4
2015-Mar-05 17:10 243 4 gusting 8 25.0
2015-Mar-05 17:00 239 5 gusting 10 25.6
2015-Mar-05 16:50 214 0 gusting 8 26.7
2015-Mar-05 16:40 218 4 gusting 10 28.3
2015-Mar-05 16:30 113 7 gusting 13 28.9
2015-Mar-05 16:20 101 7 gusting 13 28.9
2015-Mar-05 16:10 123 8 gusting 13 28.3
2015-Mar-05 16:00 112 9 gusting 19 28.9
2015-Mar-05 15:50 116 8 gusting 14 28.9
2015-Mar-05 15:40 089 8 gusting 14 30.0
2015-Mar-05 15:30 094 10 gusting 15 29.4
2015-Mar-05 15:20 111 9 gusting 17 30.0
2015-Mar-05 15:10 098 10 gusting 18 29.4
2015-Mar-05 15:00 101 10 gusting 18 29.4
2015-Mar-05 14:50 111 7 gusting 13 29.4
2015-Mar-05 14:40 114 10 gusting 17 29.4
2015-Mar-05 14:30 112 11 gusting 18 29.4
2015-Mar-05 14:20 119 11 gusting 17 29.4
2015-Mar-05 14:10 110 8 gusting 17 29.4
2015-Mar-05 14:00 107 10 gusting 18 30.0
2015-Mar-05 13:50 092 7 gusting 17 30.0
2015-Mar-05 13:40 073 9 gusting 15 30.0
2015-Mar-05 13:30 098 11 gusting 14 30.0
2015-Mar-05 13:20 073 7 gusting 13 29.4
2015-Mar-05 13:10 081 9 gusting 14 29.4
2015-Mar-05 13:00 092 12 gusting 19 30.0
2015-Mar-05 12:50 084 8 gusting 15 29.4
2015-Mar-05 12:40 085 12 gusting 15 29.4
2015-Mar-05 12:30 081 8 gusting 15 29.4
2015-Mar-05 12:20 102 8 gusting 18 29.4
2015-Mar-05 12:10 088 7 gusting 14 29.4
2015-Mar-05 12:00 093 10 gusting 19 28.9
2015-Mar-05 11:50 098 8 gusting 19 28.9
2015-Mar-05 11:40 096 10 gusting 17 28.9
2015-Mar-05 11:30 096 7 gusting 17 28.3
2015-Mar-05 11:20 077 7 gusting 14 27.8
2015-Mar-05 11:10 076 11 gusting 19 27.8
2015-Mar-05 11:00 096 9 gusting 18 27.8
2015-Mar-05 10:50 083 11 gusting 18 27.8
2015-Mar-05 10:40 106 10 gusting 17 27.2
2015-Mar-05 10:30 074 12 gusting 17 27.2
2015-Mar-05 10:20 081 10 gusting 18 27.2
2015-Mar-05 10:10 067 8 gusting 18 27.2
2015-Mar-05 10:00 088 8 gusting 15 26.7
2015-Mar-05 09:50 095 9 gusting 13 26.7
2015-Mar-05 09:40 085 8 gusting 17 26.1
2015-Mar-05 09:30 068 8 gusting 13 25.6
2015-Mar-05 09:20 086 5 gusting 10 23.9
2015-Mar-05 09:10 113 7 gusting 13 22.2
2015-Mar-05 09:00 125 5 gusting 14 19.4
2015-Mar-05 08:50 306 17.8
2015-Mar-05 08:40 306 17.2
2015-Mar-05 08:30 306 0 gusting 2 16.7
2015-Mar-05 08:20 306 0 gusting 2 16.1
2015-Mar-05 08:10 306 0 gusting 2 15.6
2015-Mar-05 08:00 306 15.0
2015-Mar-05 07:50 086 15.0
2015-Mar-05 07:40 086 15.0
2015-Mar-05 07:30 086 0 gusting 4 14.4
2015-Mar-05 07:20 064 1 gusting 4 14.4
2015-Mar-05 07:10 106 2 gusting 5 13.9
2015-Mar-05 07:00 015 0 gusting 2 13.3
2015-Mar-05 06:50 302 13.3
2015-Mar-05 06:40 302 13.3
2015-Mar-05 06:30 302 1 gusting 4 13.9
2015-Mar-05 06:20 298 2 gusting 2 13.9
2015-Mar-05 06:10 298 0 gusting 2 14.4
2015-Mar-05 06:00 305 0 gusting 2 14.4
2015-Mar-05 05:50 080 0 gusting 2 14.4
2015-Mar-05 05:40 080 14.4
2015-Mar-05 05:30 080 14.4
2015-Mar-05 05:20 316 0 gusting 2 13.9
2015-Mar-05 05:10 306 13.9
2015-Mar-05 05:00 306 14.4
2015-Mar-05 04:50 306 14.4
2015-Mar-05 04:40 306 14.4
2015-Mar-05 04:30 306 14.4
2015-Mar-05 04:20 306 15.0
2015-Mar-05 04:10 306 15.0
2015-Mar-05 04:00 306 1 gusting 2 15.0
2015-Mar-05 03:50 295 1 gusting 2 15.6
2015-Mar-05 03:40 255 1 gusting 2 15.6
2015-Mar-05 03:30 255 15.6
2015-Mar-05 03:20 255 15.6
2015-Mar-05 03:10 026 15.6
2015-Mar-05 03:00 026 15.6
2015-Mar-05 02:50 026 15.6
2015-Mar-05 02:40 101 0 gusting 4 15.6
2015-Mar-05 02:30 101 2 gusting 4 15.6
2015-Mar-05 02:20 101 0 gusting 4 15.6
2015-Mar-05 02:10 304 15.6
2015-Mar-05 02:00 304 15.6
2015-Mar-05 01:50 292 0 gusting 4 15.6
2015-Mar-05 01:40 271 2 gusting 4 15.6
2015-Mar-05 01:30 286 4 gusting 5 15.6
2015-Mar-05 01:20 284 2 gusting 4 15.6
2015-Mar-05 01:10 284 2 gusting 2 15.6
2015-Mar-05 01:00 284 1 gusting 2 16.1
2015-Mar-05 00:50 284 1 gusting 2 16.1
2015-Mar-05 00:40 284 16.1
2015-Mar-05 00:30 284 16.1
2015-Mar-05 00:20 284 0 gusting 2 16.1
2015-Mar-05 00:10 284 16.1
2015-Mar-05 00:00 284 1 gusting 2 16.1
2015-Mar-04 23:50 284 0 gusting 2 16.7
2015-Mar-04 23:40 284 0 gusting 2 16.7
2015-Mar-04 23:30 284 16.7
2015-Mar-04 23:20 284 0 gusting 2 16.7
2015-Mar-04 23:10 284 2 gusting 4 16.7
2015-Mar-04 23:00 284 1 gusting 4 17.2
2015-Mar-04 22:50 284 0 gusting 4 17.2
2015-Mar-04 22:40 284 17.2
2015-Mar-04 22:30 284 17.2
2015-Mar-04 22:20 284 0 gusting 2 17.2
2015-Mar-04 22:10 284 0 gusting 2 17.2
2015-Mar-04 22:00 284 17.8
2015-Mar-04 21:50 284 2 gusting 4 17.8
2015-Mar-04 21:40 293 2 gusting 2 17.2
2015-Mar-04 21:30 313 0 gusting 2 17.8
2015-Mar-04 21:20 173 17.8
2015-Mar-04 21:10 173 17.8
2015-Mar-04 21:00 173 18.3
2015-Mar-04 20:50 173 18.3
2015-Mar-04 20:40 173 0 gusting 2 18.3
2015-Mar-04 20:30 173 18.9
2015-Mar-04 20:20 173 18.9
2015-Mar-04 20:10 173 18.9
2015-Mar-04 20:00 173 19.4